Torna al catalogo

FENGYUN 1C DEB

LostPO
NORAD 31935·DEBRIS·🇨🇳 China

Lanciato May 10, 1999 da Taiyuan Satellite Launch Center

Loading…

Prossimi Passaggi (prossime 24 ore)

TLE

ObsoletoSource: Space-Track

Epoca: Oct 10, 2022, 07:19 UTC

1 31935U 99025CML 22283.30510883  .00006126  00000-0  28217-2 0  9998
2 31935  99.7311 106.6558 0067798 214.0246 145.6570 14.20273398789360

Traccia FENGYUN 1C DEB in tempo reale con AllMySat

Download on the App Store